DECAYED
Showing default

URESAT-1, 56992 (Decayed)

Orbit data source: Space-Track

URESAT-1, 56992 was a Spanish payload satellite in LEO that was launched on Mon, 12 Jun 2023 UTC via an FALCON 9 launch vehicle from the Air Force Western Test Range (AFWTR). Payload-class satellites include a variety of spacecraft equipped with specific instruments for various scientific and technological missions. These include communications satellites like Starlink; space stations such as the ISS; scientific satellites like the Hubble; Earth observation satellites from companies like Planet Labs, Umbra, and HawkEye 360; GPS; miniature CubeSats for education and research; and military/defense satellites.

Not visible in the next 10 days
Identifier
56992, 2023-084BU
Orbit
Decayed
Country
Flag of ESES / SPN
Related business
Flag of ESUnion of Spanish Radio Amateurs (ES)
Manufacturer
URE
Mission
Decayed Amateur Communications
Bus & Motor
POCKETQUBE 1.5P, Unknown motor
Mass
~0.5 kg wet, ~0.5 kg dry
Launch date (UTC)
2023-06-12 (3 years ago)
Launch vehicle
FALCON 9
Launch site
Air Force Western Test Range (AFWTR)
Object type
Payload
Rocket body
Debris
Shape & HBR
Box + 2 Pan, 0.0 m
Radar Cross Section
0.005 m², Small (<0.1 m²)

Expand to show TLE details & history
Last TLE update: 1 year ago

TLE from 1 year ago
0 URESAT-1
1 56992U 23084BU  25042.76759540  .17342116  26494-5  33638-3 0  9995
2 56992  97.5047 178.6720 0014759 276.3055  83.6566 16.46134597 93271
Epoch: 2025-02-11T18:25Z
TLE epoch observation values (Epoch: 2025-02-11T18:25:20.242Z)
Latitude
-0.00005°
Longitude
120.26998°
Altitude
151.74 km
Speed
7.816 km/s
True Right ascension
11h 54m 41s
True Declination
0° 00' 00"
Sunlit
Object was in full shadow at epoch
Visualization orbit readout
Latitude
Unknown
Longitude
Unknown
Altitude
Unknown
Speed
Unknown
Apparent Right ascension
Unknown
Apparent Declination
Unknown
Sunlit
N/A
Visualization observer readout
Local Sidereal Time
05:43:48
Azimuth
Unknown
Elevation
Unknown
Doppler factor
Unknown
Orbital elements
Apogee altitude
155.968 km
Perigee altitude
136.709 km
Semi-major axis
6,524.476 km
Eccentricity
0.00148
Inclination
97.5047°
RAAN
178.672°
Arg. of periapsis
276.3055°
True anomaly
83.82472°
Mean anomaly
83.6566°
Eccentric anomaly
83.74066°
Mean motion
4.11836 °/min
Orbital period
87.41 mins
BSTAR
0.00033638
Loading maneuver chart data...
Computing Atmospheric mass density...
Loading historical data...
Loading historical data...
Loading historical data...
Loading historical data...
Loading historical data...
Loading historical data...
Loading historical data...

Documentation

Showing up to 5 results
|